{"data":{"norad_id":67370,"epoch":"2026-05-24T23:23:06.386208Z","epoch_age_seconds":77155,"freshness":"FRESH","line1":"1 67370U 26004H   26144.97437947  .00001817  00000+0  20218-3 0  9994","line2":"2 67370  97.7976 143.8964 0005969 210.2968 149.7905 14.88348657 19843","mean_motion":14.88348657,"eccentricity":0.0005969,"inclination_deg":97.7976,"raan_deg":143.8964,"arg_perigee_deg":210.2968,"mean_anomaly_deg":149.7905,"bstar":0.00020218,"rev_number":1984,"period_min":96.751523457047,"perigee_km":598.92764574913,"apogee_km":607.26184020389,"semimajor_km":6981.2317429765,"source":"CELESTRAK","updated_at":"2026-05-25T13:38:13.579133Z"}}